Home > Weather > Saanich > Past weeks

Flag for Canada Weather for the Past 2 Weeks in Saanich, British Columbia, Canada

Now
41 °F

Low clouds.


Feels Like: 36 °F
Forecast: 43 / 46 °F
Wind: 8 mph from West

Location: Victoria Int. Airportb. C.

Current Time: Feb 7, 2016 at 3:11:51 AM

Latest Report: Feb 7, 2016 at 2:00 AM


Visibility: 20 mi

Pressure: 30.55 "Hg

Humidity: 87%

Dew point: 37 °F

Location of SaanichLocation

Historic Weather in Saanich — Graph

°F

Saanich Temperature Yesterday

Maximum temperature yesterday: 48 °F (at 2:00 PM)
Minimum temperature yesterday: 36 °F (at 9:00 PM)
Average temperature yesterday: 43 °F

High & Low Weather Summary for the Past Weeks

 TemperatureHumidityPressure
High52 °F (Jan 27, 10:00 AM)100% (Jan 23, 2:00 AM)30.55 "Hg (Jan 23, 2:00 AM)
Low34 °F (Jan 24, 6:00 AM)66% (Feb 3, 1:00 PM)29.58 "Hg (Jan 29, 12:00 PM)
Average43 °F89%30.07 "Hg
* Reported Jan 23 2:00 AM — Feb 7 2:00 AM, Saanich, Weather by CustomWeather, © 2016

Note: Actual official high and low records may vary slightly from our data, if they occured in-between our weather recording intervals... More about our weather records

Advertising

Saanich Weather History for the Previous 24 Hours

 ConditionsComfort  
Time TempWeatherWind HumidityBarometerVisibility
2:00 AM
Sun, Feb 7
41 °FLow clouds.8 mph87%30.55 "Hg20 mi
1:00 AM39 °FLow clouds.6 mph93%30.53 "Hg20 mi
12:00 AM39 °FPassing clouds.6 mph93%30.52 "Hg20 mi
11:00 PM
Sat, Feb 6
39 °FOvercast.5 mph93%30.52 "Hg20 mi
10:00 PM37 °FOvercast.3 mph93%30.51 "Hg20 mi
9:00 PM36 °FPassing clouds.5 mph93%30.50 "Hg20 mi
8:00 PM37 °FPassing clouds.3 mph93%30.47 "Hg30 mi
7:00 PM39 °FPassing clouds.No wind93%30.47 "Hg30 mi
6:00 PM45 °FPassing clouds.5 mph76%30.47 "Hg30 mi
5:00 PM45 °FScattered clouds.9 mph81%30.45 "Hg30 mi
4:00 PM46 °FPartly sunny.10 mph82%30.45 "Hg30 mi
3:00 PM48 °FBroken clouds.2 mph71%30.45 "Hg30 mi
2:00 PM48 °FBroken clouds.No wind71%30.45 "Hg30 mi
1:00 PM46 °FPartly sunny.2 mph82%30.44 "Hg30 mi
12:00 PM45 °FPartly sunny.3 mph81%30.45 "Hg30 mi
11:00 AM45 °FPartly sunny.5 mph81%30.45 "Hg30 mi
10:00 AM43 °FPartly sunny.No wind81%30.43 "Hg30 mi
9:00 AM41 °FPartly sunny.2 mph87%30.42 "Hg30 mi
8:00 AM41 °FBroken clouds.8 mph87%30.39 "Hg30 mi
7:00 AM43 °FPartly cloudy.8 mph76%30.36 "Hg30 mi
6:00 AM43 °FPartly cloudy.3 mph81%30.34 "Hg30 mi
5:00 AM45 °FLight rain. Partly cloudy.6 mph76%30.31 "Hg30 mi
4:00 AM41 °FPassing clouds.5 mph81%30.26 "Hg30 mi
3:00 AM43 °FPassing clouds.9 mph76%30.24 "Hg30 mi
Weather by CustomWeather, © 2016

See weather overviewHow to use our weather pages